Wind_Speed
24 23 24 24 25 26 26 26 25 24 24 24 24 23 22 22 21 21 20 19 17 15 14 13 12 12 13 14 15 16 17 17 18 19 20 21 22 23 24 24 25 26 27 27 27 27 26 26 25 24 21 18 13 11 9 9 11 12 14 14 14 13 13 12 10 10 10 10 10 11 13 14 15 16 17 18 19 20 20 20 21 22 22 22 22
23 23 24 24 25 25 25 26 26 25 25 25 25 24 23 22 22 22 21 19 17 16 14 14 14 13 14 14 15 16 17 18 19 20 20 21 23 24 25 26 27 28 28 28 27 27 26 26 25 24 21 19 16 13 12 10 12 14 15 15 15 15 14 14 12 10 10 11 12 13 15 16 16 17 19 19 20 21 21 21 22 23 23 22 21
24 24 24 24 25 25 26 26 26 26 26 26 25 25 24 23 23 22 21 20 19 17 15 15 15 15 15 15 16 17 18 19 20 21 21 22 23 25 27 28 29 29 29 28 28 27 26 26 25 24 21 19 18 16 15 13 12 14 16 16 15 15 15 14 13 12 12 13 14 15 17 18 19 20 21 21 22 22 23 23 23 24 23 22 21
24 25 25 25 25 25 26 27 27 27 27 26 26 25 24 24 23 22 21 21 20 18 17 16 16 16 15 15 15 16 17 18 19 21 22 23 24 26 28 29 30 30 29 28 28 27 26 25 25 24 22 20 19 18 17 15 13 14 15 16 15 15 15 14 14 14 14 15 15 16 17 19 20 22 23 23 24 25 25 24 25 25 24 23 22
24 24 25 25 26 26 27 27 28 28 27 27 26 25 25 24 23 22 21 21 20 19 19 17 16 16 15 14 15 15 16 17 19 21 22 23 24 26 27 29 29 29 29 28 27 27 26 25 25 24 22 20 19 19 18 16 14 14 15 16 16 16 16 16 16 16 16 16 16 16 17 19 21 22 23 24 24 25 25 25 25 25 25 24 24
25 25 25 25 27 27 28 28 28 28 27 27 26 25 25 24 24 23 22 21 20 20 19 18 17 16 15 15 15 15 16 17 18 20 21 22 23 24 26 28 28 29 29 27 27 27 26 25 25 23 22 20 19 20 19 17 15 14 15 16 17 17 17 17 18 18 18 17 17 18 19 20 22 22 24 25 25 25 26 26 25 25 26 26 26
28 27 27 27 27 28 29 29 28 27 27 27 26 26 25 25 24 23 22 22 21 20 19 18 17 16 16 16 15 15 16 17 17 18 19 20 22 23 26 28 28 28 29 27 26 27 26 26 25 23 22 20 20 20 20 19 16 14 15 17 18 19 18 18 19 19 19 19 19 19 20 22 23 23 24 25 26 26 27 26 25 25 27 28 27
32 30 30 28 28 28 29 29 28 27 27 27 27 26 26 25 25 24 23 23 22 20 19 19 18 17 17 16 15 15 15 15 15 17 19 20 22 23 25 27 27 27 28 26 26 27 26 25 25 24 22 21 20 20 20 20 18 16 16 18 19 19 19 19 20 21 21 21 20 20 21 22 23 23 24 26 27 27 28 29 27 27 28 29 28
34 34 33 31 28 29 29 29 29 28 28 28 28 28 27 26 25 25 25 24 22 21 20 20 20 19 17 16 15 14 14 13 14 16 19 20 22 23 25 26 26 27 27 24 24 26 26 25 24 24 24 22 21 20 20 21 20 18 17 19 20 20 20 21 21 22 22 22 21 21 22 22 22 23 24 25 27 28 28 30 30 30 30 30 29
35 35 35 32 31 31 30 30 30 30 29 29 29 28 28 27 27 26 26 24 23 22 22 21 20 18 17 16 15 14 13 12 13 15 17 20 21 22 24 25 24 25 26 24 23 25 25 24 24 24 24 23 21 20 21 22 22 20 19 20 20 20 20 21 22 23 23 23 21 22 23 22 21 23 25 26 28 29 29 31 32 32 33 33 30
37 36 35 34 34 33 32 31 31 31 30 30 29 29 28 28 28 28 27 26 24 24 24 23 20 18 17 16 16 15 14 13 13 13 15 19 22 23 23 23 23 24 24 24 23 23 24 25 24 24 24 24 22 21 21 22 24 23 21 22 21 20 21 21 23 24 24 24 23 23 23 22 22 24 26 28 28 30 31 32 33 33 34 35 32
37 37 36 36 37 36 33 32 32 32 31 31 29 29 29 29 29 29 28 27 26 26 25 23 21 19 18 17 16 15 14 14 14 14 16 20 23 25 24 23 24 24 23 23 23 24 25 26 25 24 25 25 23 23 23 23 25 25 24 23 23 22 22 22 23 24 24 24 24 23 24 24 24 25 28 29 29 30 32 33 34 35 35 35 34
37 38 38 38 39 37 35 34 33 33 33 31 30 30 30 31 31 30 29 27 27 27 26 24 22 20 19 17 15 15 16 15 15 15 18 21 25 27 25 23 25 25 24 23 24 26 27 26 25 24 25 25 25 24 24 24 26 27 26 25 25 24 24 24 24 24 25 25 25 24 24 26 26 27 29 30 30 32 33 34 34 35 36 35 35
35 37 39 40 40 39 37 36 35 34 34 33 31 31 31 32 32 31 29 28 28 28 27 25 23 20 18 16 16 17 17 16 16 16 18 21 25 28 25 24 25 26 24 25 26 27 27 26 25 25 25 26 27 26 26 26 27 29 28 27 26 26 25 25 25 25 25 26 26 24 24 26 28 28 30 31 32 33 35 35 35 35 36 35 34
35 36 38 39 40 40 39 38 36 35 35 35 34 33 33 33 33 31 30 29 29 28 26 25 22 21 19 17 18 19 18 17 17 16 18 21 26 29 26 25 27 27 25 26 28 28 27 26 25 24 25 27 28 28 28 27 27 30 30 29 27 27 26 25 24 25 26 26 26 25 25 27 29 30 30 32 34 35 36 37 36 36 36 35 34
36 36 37 38 40 40 40 39 38 37 37 37 36 35 34 34 33 32 31 30 29 28 27 25 23 21 20 19 20 20 19 18 18 16 19 23 26 29 28 27 29 29 27 27 30 29 28 27 26 25 25 27 28 30 30 28 28 31 31 29 28 27 26 25 25 26 26 26 26 27 27 29 30 31 31 33 35 37 38 38 37 37 38 36 33
35 36 36 37 38 39 40 40 39 39 38 39 39 37 36 35 34 33 32 31 30 29 27 25 23 22 22 22 22 21 19 19 17 17 20 24 28 31 30 28 29 31 30 30 31 30 29 28 27 26 26 27 29 31 31 29 28 31 30 29 28 27 25 24 26 26 26 26 26 28 28 30 31 32 33 35 36 38 39 39 38 38 38 36 33
35 35 35 35 37 38 39 40 40 40 40 40 40 39 38 37 35 34 33 31 30 29 27 26 26 25 25 24 22 21 19 18 18 18 21 25 29 31 31 29 30 32 32 32 32 31 30 29 28 28 27 26 29 32 31 29 29 31 30 29 28 27 24 25 26 27 26 27 27 28 29 30 32 33 35 36 37 38 39 39 38 37 36 34 33
35 34 33 32 33 35 38 40 41 42 42 42 41 41 40 39 36 35 34 32 31 29 28 28 28 27 26 25 22 21 20 19 19 20 23 27 30 33 33 32 32 33 33 33 33 32 30 28 28 29 27 27 30 32 30 29 30 30 29 30 29 27 25 26 27 27 27 27 28 29 30 31 33 35 37 37 38 39 40 39 37 36 35 34 33
32 30 29 28 28 30 33 38 42 44 43 43 43 43 42 40 38 36 35 34 32 31 31 31 30 29 27 25 22 21 22 22 22 23 25 28 30 33 35 34 34 33 33 34 34 31 28 27 27 27 27 28 31 33 29 29 31 30 30 32 30 28 27 28 28 27 27 28 29 29 30 32 34 36 38 39 40 40 39 37 35 35 35 34 33
34 33 32 31 32 31 31 34 39 44 45 44 44 45 44 41 39 38 37 36 34 33 33 32 31 29 26 23 21 23 24 24 24 25 28 30 32 34 36 35 34 33 34 35 33 29 27 27 26 27 27 28 32 33 29 28 31 32 31 32 32 30 29 28 28 27 27 28 29 29 30 33 35 37 39 40 40 38 36 34 34 34 33 33 32
36 37 37 37 37 37 35 34 35 40 44 46 46 46 44 42 40 39 37 37 36 34 33 32 31 28 24 22 23 25 25 25 26 28 29 32 34 36 35 34 34 34 35 35 32 28 26 27 26 26 27 30 33 33 28 29 32 32 31 32 32 30 27 25 26 28 28 28 29 29 32 35 37 38 38 37 36 34 32 32 31 31 30 30 30
37 38 40 41 41 41 40 39 38 39 43 46 46 45 43 41 40 39 38 37 36 34 32 31 29 25 24 24 25 25 26 27 28 30 32 34 35 34 34 34 34 35 34 32 29 26 25 25 26 27 29 32 34 32 29 31 31 29 30 31 28 25 24 24 26 28 27 27 29 32 35 37 37 36 35 33 32 31 30 30 29 28 28 29 30
41 42 43 44 44 44 44 44 42 41 42 44 46 44 41 40 39 39 38 37 34 33 31 29 28 26 25 25 24 25 28 28 30 33 35 35 33 32 33 34 35 34 32 29 27 24 23 24 27 29 31 33 33 31 31 31 29 26 28 28 24 23 24 26 27 27 26 27 31 34 36 35 34 33 32 31 31 30 28 27 26 26 28 29 29
44 47 48 48 48 47 47 47 46 45 43 43 45 43 39 39 39 38 37 35 32 31 30 28 27 27 26 25 25 27 29 30 32 35 35 33 32 32 33 34 34 33 30 27 25 23 24 26 30 32 33 32 30 30 30 30 27 25 26 26 23 23 25 27 27 27 27 30 33 34 33 33 32 31 30 29 28 28 26 25 24 25 27 29 29
45 48 50 52 52 52 50 49 49 49 45 42 42 42 39 37 37 35 34 33 32 31 30 28 27 28 28 27 27 28 30 32 35 35 33 31 31 30 30 31 31 30 28 25 22 21 25 29 31 32 32 29 27 28 28 26 24 23 23 24 24 24 26 28 28 26 27 31 33 32 31 30 29 28 27 26 25 25 25 24 25 25 27 29 29
47 50 53 55 55 54 54 53 51 50 47 42 41 42 41 37 34 33 33 34 33 31 30 29 29 28 28 27 26 28 32 35 35 33 30 29 28 27 27 28 27 26 24 22 22 25 28 30 30 29 28 25 24 25 25 23 23 23 23 23 24 25 28 29 28 27 29 31 31 29 28 26 25 24 23 23 23 23 24 26 26 27 28 29 28
46 50 54 58 59 57 56 56 53 49 45 43 42 42 40 35 32 33 34 33 32 31 31 30 28 27 26 25 26 30 33 34 32 30 28 27 25 24 25 25 23 21 20 21 24 28 29 27 24 23 21 20 22 23 23 23 24 25 25 25 25 27 29 29 28 28 29 29 29 28 26 23 21 21 21 20 20 22 25 27 28 28 28 27 27
50 52 54 58 62 62 60 57 54 47 41 42 43 40 37 34 33 35 35 34 33 32 30 27 25 25 24 24 27 31 32 31 30 29 27 25 24 23 23 22 20 19 19 21 24 27 26 22 19 18 19 19 21 23 24 25 26 27 26 26 27 29 29 28 28 29 29 28 27 27 24 21 20 21 21 20 21 22 25 26 26 26 27 27 27
60 58 58 58 62 67 67 60 53 47 42 41 41 38 37 37 37 37 36 34 32 30 27 25 25 24 24 26 29 31 31 29 28 28 26 24 23 22 21 21 20 19 19 19 21 23 22 19 17 18 19 19 20 22 24 25 26 27 27 28 29 28 28 27 28 29 29 28 27 26 24 23 22 22 22 23 24 24 25 26 26 27 27 27 27
73 69 61 58 59 63 63 57 50 46 43 39 37 36 37 38 38 37 35 33 30 27 25 25 24 24 25 28 30 30 29 27 26 25 24 22 21 20 19 19 18 16 16 17 19 20 19 17 18 20 21 20 20 20 22 24 27 28 29 29 28 27 26 27 28 29 29 29 27 25 25 25 24 23 23 24 25 26 27 26 26 27 26 26 27
64 66 54 49 50 52 52 49 44 41 38 35 35 36 36 36 35 34 32 30 27 25 24 24 24 25 27 28 29 28 28 27 25 23 21 18 17 17 16 14 13 12 13 15 18 19 17 16 17 19 20 19 20 22 24 26 28 28 27 27 25 25 26 27 28 29 29 28 26 25 24 24 24 24 24 25 26 27 27 26 26 25 25 26 26
28 39 37 35 38 39 38 37 35 34 34 35 37 36 34 32 30 28 27 26 25 24 24 24 24 25 26 27 28 27 26 25 22 19 17 14 13 13 13 12 11 11 12 14 16 15 14 14 15 17 18 20 23 25 26 27 26 24 22 23 24 26 27 28 28 28 28 27 26 25 25 25 24 25 25 25 26 26 26 25 24 24 25 25 25
6 13 16 19 22 26 29 31 32 34 35 34 34 33 31 29 27 25 23 22 22 23 25 25 25 24 25 26 27 26 25 23 21 19 16 13 12 11 12 13 12 11 11 12 12 11 11 12 15 18 21 23 25 26 25 23 21 20 21 23 25 27 27 28 28 28 27 26 26 26 26 26 26 25 25 25 25 25 25 24 24 24 24 24 23
18 17 17 19 21 24 28 30 30 31 31 30 29 28 26 25 23 21 21 22 23 24 25 25 24 24 25 26 26 26 26 23 21 19 16 13 11 11 13 13 12 11 11 12 12 11 12 14 17 20 23 24 25 24 21 19 19 20 23 25 26 27 27 27 27 26 26 26 26 26 27 27 26 25 24 24 24 25 24 24 24 23 22 22 21
17 18 20 21 21 21 22 23 24 24 23 23 24 24 23 22 21 21 22 23 23 23 23 22 22 22 24 24 24 24 22 19 18 16 14 12 12 13 13 13 12 12 13 14 14 13 14 16 18 20 21 22 22 20 18 18 19 22 24 25 26 27 27 26 25 25 25 25 25 25 25 25 25 24 24 24 24 24 23 23 22 21 20 20 20
16 17 20 22 21 20 19 20 20 19 19 21 22 21 20 19 20 20 20 19 18 19 21 21 21 21 22 21 20 18 16 14 13 13 12 13 13 13 13 13 13 13 13 14 14 15 16 17 18 18 19 19 19 18 18 19 21 23 24 25 25 26 26 25 25 24 24 24 25 25 25 24 24 24 24 24 24 23 22 21 20 19 18 19 19
18 19 20 20 19 18 18 18 18 17 18 19 19 18 17 18 18 18 16 15 16 18 19 19 19 19 19 17 15 14 12 12 11 11 11 12 12 12 13 13 13 13 14 15 16 16 16 15 15 16 17 17 17 18 19 21 22 23 24 24 25 25 24 24 23 23 23 24 24 25 25 24 23 23 24 24 23 22 21 19 18 17 17 18 19
20 19 18 17 16 16 17 18 17 16 17 17 18 17 17 17 17 16 16 16 17 18 18 17 17 17 16 14 12 11 11 11 11 11 12 12 13 13 14 13 14 14 15 16 16 15 14 13 14 15 16 16 18 19 22 23 24 24 24 24 24 23 23 22 22 22 23 23 24 24 23 23 23 23 24 23 21 20 18 17 17 16 16 17 18
16 15 15 15 15 14 15 16 16 17 19 19 18 17 17 16 16 17 17 18 18 18 17 16 16 15 13 12 11 11 11 12 12 12 13 14 14 14 15 15 16 16 15 14 14 13 13 12 13 14 16 17 19 22 24 25 25 25 25 25 24 23 22 21 22 22 23 23 23 22 21 21 22 23 22 20 19 18 17 16 15 15 16 16 17
13 13 14 14 12 12 14 15 15 15 15 14 13 13 14 15 17 18 18 18 17 17 16 15 14 13 12 12 11 11 12 12 13 14 15 15 16 16 16 17 17 15 13 13 13 13 13 13 14 16 18 20 22 24 24 24 25 25 25 24 23 22 21 21 21 22 22 22 21 20 20 21 22 21 20 18 17 17 16 15 14 14 15 16 17
12 12 12 11 9 8 10 10 10 10 10 10 11 13 15 17 17 17 17 16 15 14 14 13 13 13 12 11 11 12 12 13 14 15 15 15 16 16 17 17 16 13 12 13 13 14 14 15 16 18 20 21 22 23 23 24 24 24 23 22 21 21 21 21 21 21 21 20 20 20 20 20 20 19 18 18 17 15 15 14 14 14 15 16 17
12 11 10 10 10 10 10 10 10 11 12 13 14 15 16 16 16 16 15 14 13 12 12 12 12 12 12 12 12 12 13 13 14 14 14 14 15 16 17 16 15 13 13 14 14 15 15 17 18 19 20 20 21 21 22 22 22 21 20 20 19 19 19 19 19 20 20 20 19 19 19 19 19 18 17 17 15 15 14 13 13 14 15 16 16
13 13 13 13 14 13 13 14 15 16 16 15 15 15 15 15 15 15 13 11 11 12 12 12 12 12 12 12 11 11 12 13 13 13 13 14 15 16 16 15 15 14 14 14 15 15 16 17 17 17 18 18 19 20 20 20 20 20 19 18 17 16 16 16 18 18 19 18 18 18 18 18 18 18 17 16 15 14 14 13 13 14 15 16 16
16 16 16 16 15 15 14 15 17 17 16 16 16 16 15 15 14 13 12 11 11 12 13 12 12 12 12 11 11 11 12 12 12 12 13 14 15 15 15 15 15 15 14 14 14 14 15 15 16 16 18 19 19 18 18 19 19 19 18 17 15 15 15 15 16 17 17 17 17 17 18 18 18 18 17 16 15 14 14 13 13 14 15 15 16
16 17 18 18 16 15 15 16 16 16 15 15 16 16 15 14 13 13 12 12 12 12 13 13 12 12 11 11 11 12 12 12 12 13 14 14 15 15 16 16 15 14 13 13 13 13 14 15 16 16 18 19 18 18 18 18 18 18 18 17 16 16 15 15 16 16 16 17 17 17 18 18 18 18 17 16 15 15 14 13 14 14 14 15 16
15 17 19 18 18 17 19 20 20 19 18 17 16 16 15 14 13 12 12 12 12 13 13 13 13 13 12 12 12 12 12 13 13 14 14 14 15 15 16 15 14 13 12 12 12 14 15 15 15 15 17 18 17 17 17 17 16 17 18 18 17 16 15 15 15 16 16 17 17 17 17 18 18 18 17 17 16 15 14 14 14 14 14 15 15
18 18 18 18 19 20 20 21 21 20 19 18 17 17 16 14 12 12 12 12 12 14 15 15 14 13 13 12 12 13 14 14 14 14 14 15 15 15 14 14 14 13 13 12 13 15 15 15 14 15 16 16 15 15 16 16 16 16 17 17 17 16 15 15 15 15 15 16 17 17 18 18 18 18 17 17 16 16 15 15 15 14 14 15 15
19 18 17 18 17 16 16 17 19 19 19 19 20 19 17 14 13 13 13 14 14 15 15 15 14 13 13 13 14 14 14 14 15 15 15 15 15 14 14 14 14 13 13 13 15 16 15 14 14 14 15 15 15 15 15 16 15 15 15 15 15 15 15 15 15 15 16 16 17 17 18 18 18 18 18 17 17 16 16 15 15 15 14 15 15
14 14 16 17 16 14 15 17 18 18 17 18 19 17 14 14 15 15 14 14 15 15 14 14 13 13 13 13 14 14 14 15 16 16 15 15 14 14 14 15 15 14 14 15 16 17 16 15 13 13 13 14 15 15 15 15 15 15 15 15 15 15 15 15 16 16 17 17 17 17 18 19 19 19 19 18 18 17 16 16 15 15 14 14 15
10 11 13 15 16 16 16 18 20 20 19 18 17 15 13 15 17 15 14 14 14 13 14 14 14 14 14 13 13 13 14 15 16 16 15 14 15 15 16 16 17 17 16 16 17 17 16 15 14 13 13 14 15 15 15 15 15 15 15 16 16 17 16 16 16 17 17 17 17 17 18 18 19 19 19 19 19 18 17 17 16 15 14 14 15
Wind_Direction
218 218 220 222 223 223 222 222 222 221 220 221 221 219 217 215 215 217 219 220 221 222 222 224 228 232 238 244 249 256 264 271 276 278 280 283 286 288 289 293 296 298 301 306 307 308 309 314 323 325 325 324 307 278 273 283 282 282 280 273 269 267 265 261 251 251 262 271 278 285 291 296 299 300 299 298 296 296 295 295 293 292 290 288 286
216 217 218 219 221 222 223 223 223 222 220 221 220 218 217 216 216 218 219 222 224 224 225 228 232 237 242 247 252 257 263 270 276 279 282 286 287 288 290 292 294 294 297 302 304 304 305 309 316 321 320 320 311 288 274 278 277 274 273 271 270 270 268 264 259 256 262 271 280 285 288 293 299 302 302 300 296 294 292 291 290 289 288 286 284
215 217 219 220 221 222 222 223 223 222 221 221 221 219 218 217 218 219 220 223 226 227 229 231 236 240 245 250 253 257 263 268 275 280 283 287 289 290 292 292 292 293 295 298 299 300 303 306 311 315 316 314 310 296 277 272 273 270 269 269 270 270 267 262 259 259 264 273 282 286 287 291 298 302 304 303 300 298 296 295 295 294 293 292 291
215 218 219 220 221 222 222 222 223 223 222 221 221 220 219 220 220 221 222 225 228 231 233 235 238 241 244 248 253 257 263 269 276 281 284 288 290 290 291 291 292 293 294 294 294 294 298 303 306 309 311 311 309 299 283 273 272 270 270 272 272 270 268 265 263 264 271 279 284 286 286 289 295 301 303 303 302 301 300 299 298 297 297 297 296
217 219 219 220 221 221 222 222 223 223 221 221 221 221 220 221 222 223 224 226 228 232 235 236 238 240 241 246 252 257 264 269 274 279 283 286 287 288 290 290 291 293 293 291 290 289 292 297 300 304 307 309 307 299 285 274 270 269 270 272 270 268 267 267 267 271 277 283 286 287 287 288 293 300 302 302 301 300 300 299 298 298 298 298 298
220 222 221 220 221 221 221 222 223 222 221 220 220 221 221 222 223 225 225 226 229 231 234 236 237 238 240 244 249 255 261 265 270 275 280 282 285 287 288 289 290 290 291 290 286 284 287 292 295 298 303 306 304 297 285 273 267 265 267 269 269 269 270 271 274 279 284 288 290 290 289 289 294 299 301 301 300 300 299 299 300 300 299 298 297
223 225 222 222 223 222 222 223 223 222 220 220 219 220 221 222 223 225 226 227 229 230 231 233 234 235 236 240 246 252 258 263 269 274 279 283 286 286 287 289 289 288 289 288 284 281 282 287 291 293 297 300 299 295 285 273 265 261 264 268 270 271 273 275 280 284 288 292 293 292 291 292 295 298 300 300 301 301 300 300 300 299 298 297 296
224 227 225 224 225 224 223 223 224 223 221 220 220 220 221 222 224 225 227 229 228 228 229 231 232 232 233 238 245 252 260 268 277 282 285 287 287 286 285 286 286 288 291 286 278 277 278 281 286 289 291 293 294 292 285 273 263 258 260 265 268 270 272 276 280 285 289 292 293 292 292 293 296 298 299 300 302 303 302 302 302 299 297 296 296
226 228 227 226 226 225 223 223 223 223 222 221 221 221 220 222 224 226 228 229 229 228 228 229 229 229 232 238 246 255 265 277 287 291 291 289 287 285 284 283 285 292 297 290 275 272 274 277 284 287 286 286 288 289 283 272 260 254 255 260 263 267 271 276 281 286 289 291 292 291 291 294 296 297 298 300 302 303 303 302 301 299 296 294 292
228 230 231 230 229 226 223 222 223 222 222 221 221 221 221 221 223 225 227 227 227 228 228 228 228 229 234 241 250 259 269 281 288 290 290 290 289 286 286 287 288 292 298 295 281 270 269 273 281 282 281 281 283 286 283 271 259 253 253 257 261 266 272 278 283 287 289 291 292 292 292 295 298 298 300 301 302 302 302 301 299 297 295 292 290
230 231 233 232 232 229 225 222 222 222 222 222 222 222 222 222 223 224 225 225 225 226 227 229 229 231 237 244 253 262 272 279 279 279 284 288 289 288 289 290 290 290 293 293 286 274 267 270 276 278 276 277 279 283 282 271 257 251 252 256 261 266 272 279 284 287 289 290 292 293 294 296 298 299 300 301 302 302 302 300 298 296 294 292 293
230 231 233 233 232 230 227 224 222 222 222 222 222 222 223 223 223 223 223 222 222 225 227 229 230 234 240 247 255 265 272 272 268 270 280 286 288 289 289 289 290 290 290 288 283 275 269 268 271 273 272 273 275 278 281 274 257 248 250 254 258 264 271 278 283 286 288 290 292 294 295 296 297 298 300 300 302 303 301 300 299 297 296 295 295
230 231 232 233 233 231 229 227 224 222 222 222 222 223 223 224 224 223 223 223 224 226 228 230 233 237 242 250 259 267 269 266 263 269 281 286 287 290 291 291 291 290 290 288 281 273 269 266 267 270 269 269 270 272 278 275 258 247 247 251 256 261 268 276 283 287 289 291 292 293 295 295 296 298 299 301 302 303 301 300 300 298 297 296 295
229 229 229 232 234 231 229 229 227 224 223 223 223 223 224 225 225 225 226 226 227 229 230 232 235 238 244 253 260 264 264 260 259 271 283 285 286 289 289 287 288 289 289 289 286 279 272 265 264 267 265 265 267 268 273 273 258 245 244 249 254 260 267 275 284 289 290 290 291 293 295 295 296 299 300 302 303 303 301 301 301 299 296 295 295
228 227 226 228 230 230 229 230 229 226 224 224 224 224 224 225 227 228 229 230 231 233 234 236 237 240 246 252 257 260 260 255 256 273 286 284 284 288 287 283 286 287 284 283 285 284 276 264 260 262 261 262 265 266 271 272 256 242 242 247 253 260 266 276 284 287 287 289 290 293 295 296 299 301 302 302 303 303 302 302 302 300 296 295 297
230 227 225 225 227 228 228 229 229 228 225 224 224 224 224 226 228 230 232 233 235 236 236 237 239 242 246 252 256 258 256 251 256 275 287 283 283 286 285 283 285 286 282 279 281 283 275 262 256 257 258 261 262 263 271 272 253 239 240 246 252 259 266 275 282 284 286 288 290 293 297 299 300 301 302 302 303 303 303 303 302 300 298 299 300
233 229 227 225 224 225 226 227 228 227 226 226 225 224 225 226 228 230 233 235 236 237 238 240 243 247 251 255 259 258 251 248 258 278 285 282 283 286 285 284 284 284 282 279 278 279 274 263 257 256 257 260 259 260 270 270 249 236 239 244 250 257 264 274 281 284 286 288 290 293 296 299 300 301 303 303 303 303 302 302 301 299 299 301 301
239 235 232 230 227 225 223 223 225 227 227 227 226 225 225 227 229 231 234 237 239 240 241 244 247 251 255 258 259 255 247 248 262 280 285 283 284 286 286 283 281 282 282 279 277 275 271 264 259 256 257 259 256 257 267 265 244 234 238 242 247 255 264 273 279 281 283 286 289 293 296 299 301 302 302 302 302 302 300 300 299 300 300 301 299
243 241 239 236 234 231 226 222 222 224 227 227 227 227 226 227 229 232 235 238 241 242 244 247 249 253 257 259 255 249 248 255 268 281 287 287 287 287 285 281 280 282 282 278 275 272 267 262 258 256 257 257 255 258 264 257 240 235 238 242 247 255 264 271 276 278 282 287 291 294 297 300 302 302 302 302 301 300 298 298 299 299 299 299 298
246 248 247 245 245 244 238 229 223 222 224 226 227 228 227 227 228 231 235 238 241 243 245 247 251 255 257 256 253 253 257 264 273 282 287 288 288 287 286 285 285 285 281 276 273 270 264 260 256 254 254 256 258 262 262 251 241 238 239 243 248 255 262 269 273 277 283 289 292 293 296 300 302 302 301 301 299 298 297 296 295 295 297 298 298
255 256 256 256 257 257 254 245 233 225 223 223 225 227 228 227 227 229 233 236 240 242 243 246 252 256 255 255 258 261 264 268 275 283 286 286 287 288 288 288 287 284 279 275 273 268 263 260 257 254 255 258 262 265 261 248 242 241 241 244 248 251 258 266 273 279 286 288 289 292 298 303 304 302 300 299 297 295 293 290 290 293 296 297 297
261 259 259 261 262 261 261 259 251 238 227 222 223 225 226 227 228 229 231 234 237 239 242 247 251 252 251 254 258 260 264 271 277 282 284 284 285 288 289 288 285 281 277 276 275 270 263 258 255 255 258 259 262 265 258 244 242 243 243 244 248 252 259 268 276 282 286 286 289 295 302 304 302 300 299 298 296 293 289 286 288 291 294 295 296
260 260 259 260 262 263 262 263 263 254 239 227 223 223 224 225 227 228 230 232 234 237 241 244 245 245 246 250 254 260 267 274 277 279 280 282 284 287 287 285 282 280 278 278 277 270 262 257 255 257 258 258 261 262 253 243 244 246 245 246 250 258 266 272 277 281 284 288 294 301 303 302 301 301 301 300 298 294 289 287 288 290 292 293 295
256 257 257 256 257 259 261 262 262 260 251 236 226 222 222 223 225 227 230 231 233 237 238 236 237 240 242 247 258 267 271 273 276 278 279 281 284 286 285 284 282 281 279 277 273 268 265 262 258 255 254 255 258 256 247 243 247 250 251 254 258 263 268 273 277 281 286 294 299 302 302 302 303 304 304 302 299 296 291 289 288 289 289 290 291
252 252 253 254 255 255 256 257 257 258 255 243 231 224 222 222 225 227 229 231 232 231 229 229 231 235 239 249 262 269 269 271 276 277 278 281 284 284 284 283 282 281 279 274 269 268 268 265 259 255 253 253 252 248 244 243 246 248 250 255 262 268 274 278 279 284 292 298 301 303 304 304 306 305 305 304 301 297 292 287 285 285 287 289 292
257 253 249 249 252 253 251 251 252 253 252 243 233 227 224 224 228 229 228 228 225 222 222 224 226 231 242 256 265 269 270 272 274 275 278 281 283 282 282 282 281 281 280 275 269 268 269 268 263 258 254 250 244 243 245 247 248 249 252 260 270 277 280 281 283 289 296 300 303 304 304 304 305 305 305 304 302 297 291 286 284 286 288 291 293
265 262 254 249 249 249 247 244 245 246 245 238 229 227 226 225 226 226 223 219 216 216 220 223 227 237 251 261 267 269 270 272 273 276 279 281 280 278 277 278 278 278 276 271 267 267 267 266 261 253 247 245 243 244 249 251 253 257 262 270 277 280 282 285 290 294 298 301 302 302 301 301 302 303 303 302 299 295 291 288 287 288 289 291 293
266 267 261 253 249 250 249 243 238 239 239 233 225 224 224 222 218 216 214 212 213 216 220 225 234 248 257 262 267 269 269 271 275 277 278 277 276 273 272 274 276 275 271 266 265 267 269 268 262 251 243 242 242 244 248 252 255 261 266 271 276 281 286 291 294 296 299 301 301 301 302 302 301 302 303 301 296 290 287 286 287 289 291 294 295
263 263 260 253 249 251 252 246 237 234 232 228 223 220 216 212 209 207 208 210 213 217 222 231 245 256 260 265 268 268 268 272 274 275 276 276 272 267 267 268 267 264 262 260 260 264 268 266 258 251 249 245 240 239 244 251 256 261 266 271 278 284 289 292 294 297 299 301 302 303 304 304 304 305 305 303 299 292 289 291 295 297 300 302 303
263 259 256 253 250 251 251 246 236 227 222 221 221 215 205 200 202 203 206 211 214 219 229 243 253 258 261 265 267 267 270 273 274 275 276 273 267 264 264 263 260 260 262 264 266 270 269 259 246 251 258 254 244 241 244 251 258 263 268 274 281 286 289 291 294 298 301 304 305 306 306 308 310 310 308 307 305 303 302 304 306 306 306 307 308
256 251 249 250 251 249 243 236 228 220 216 213 211 205 198 196 199 201 204 208 214 225 238 248 252 257 262 266 268 270 271 271 271 273 273 268 264 264 265 264 264 265 271 278 281 280 273 257 249 258 264 260 252 250 249 253 260 267 274 279 283 286 288 291 296 300 304 306 306 306 307 311 313 312 311 309 307 306 307 307 306 305 306 307 307
239 236 238 244 247 240 228 220 217 213 208 199 192 191 193 196 199 202 206 213 223 234 243 247 251 259 264 267 268 268 267 267 268 268 264 261 260 262 262 261 263 270 281 286 284 279 273 263 258 263 265 261 256 253 253 257 265 273 278 281 283 285 289 294 298 301 302 302 303 305 308 311 311 311 311 308 304 303 304 304 304 304 306 307 307
232 232 236 238 235 226 213 204 198 191 186 183 183 187 192 196 202 208 214 222 230 237 241 247 255 261 263 264 265 263 262 263 261 255 250 251 256 261 259 251 250 261 273 275 271 267 264 261 258 257 257 256 255 256 259 266 272 275 277 279 283 288 292 295 297 298 299 301 305 308 310 311 311 311 308 304 302 301 302 304 305 306 306 306 306
170 206 211 203 197 189 181 176 173 173 176 182 187 192 196 201 208 217 224 230 237 242 247 254 260 262 262 262 262 260 257 253 246 241 245 251 253 251 243 236 240 251 256 253 250 248 247 251 254 254 256 257 259 263 267 270 271 273 277 282 287 290 292 294 296 298 301 305 308 310 310 311 311 309 307 304 302 302 304 306 305 305 306 306 306
122 129 136 145 154 159 163 166 170 176 181 187 192 197 204 210 219 228 236 242 247 251 257 262 262 261 261 261 259 258 256 252 248 247 249 247 237 229 228 232 241 248 242 237 237 240 244 251 254 256 259 261 264 266 267 268 272 278 283 287 289 291 293 296 297 300 302 304 306 308 308 309 309 308 306 304 302 302 303 304 304 305 306 305 307
127 134 144 154 161 165 169 174 180 184 189 195 202 208 215 222 230 237 242 246 250 256 262 264 259 256 257 256 256 257 257 257 257 253 245 235 231 233 234 234 235 234 231 231 237 245 252 255 256 256 260 263 265 266 268 272 278 283 286 289 291 293 295 296 298 299 302 304 306 306 306 306 305 304 303 301 300 300 301 302 304 306 306 307 310
151 156 164 173 179 181 183 186 191 196 201 206 212 216 221 229 238 244 246 248 254 259 261 257 253 252 252 252 254 256 257 257 255 247 237 233 236 237 233 226 224 227 230 236 246 255 259 259 257 257 259 262 265 269 273 277 282 285 287 289 291 292 294 295 297 300 303 304 304 304 303 302 302 302 300 298 297 299 301 303 305 306 308 311 313
177 181 184 189 195 198 199 200 204 208 211 215 221 229 238 248 254 255 251 249 252 254 252 248 247 248 248 247 249 251 251 250 244 233 226 227 229 228 225 224 226 230 236 244 254 260 259 257 255 256 259 264 269 273 277 280 284 286 288 289 290 291 292 293 296 298 300 301 301 300 300 301 302 300 297 295 296 299 301 302 305 308 310 311 312
198 200 204 208 210 210 212 215 218 222 227 234 240 245 252 262 266 261 252 248 248 249 247 246 245 244 242 242 242 241 239 237 229 222 221 224 226 228 229 230 233 236 242 249 256 257 256 254 255 258 263 268 273 277 281 284 286 287 289 289 289 289 290 292 295 297 298 298 297 296 296 297 295 293 292 294 296 297 298 301 305 309 310 310 312
216 220 221 220 220 221 224 229 234 239 243 248 252 256 261 266 264 255 248 246 247 248 247 245 244 242 239 237 235 233 230 225 220 220 223 225 228 230 232 235 239 243 247 251 253 253 253 253 256 262 267 272 276 280 282 284 285 287 288 289 289 290 293 295 296 297 297 295 294 293 292 290 289 290 292 294 294 294 296 301 306 308 309 310 312
224 228 227 226 228 233 235 234 238 243 244 244 249 255 254 250 246 244 244 245 247 247 245 242 239 236 234 232 231 230 227 222 220 222 225 226 228 230 233 236 240 242 244 246 248 250 251 253 258 265 270 273 277 279 280 282 284 286 287 288 290 293 295 296 296 295 293 291 289 288 288 288 290 291 292 291 291 294 298 302 305 307 308 309 311
218 227 232 227 217 218 227 229 231 238 238 232 232 235 234 232 235 238 241 245 246 244 240 237 234 229 227 226 226 226 224 222 223 224 226 228 229 230 233 236 237 236 237 241 245 248 252 257 263 267 270 272 275 277 278 280 281 282 283 286 289 293 295 295 294 292 288 286 286 286 287 289 291 292 291 290 292 296 298 301 305 306 307 308 308
206 210 218 217 210 210 221 230 233 234 229 224 225 230 231 233 236 240 243 245 243 237 231 227 223 221 221 221 222 222 223 223 224 224 224 225 226 227 230 233 232 230 233 239 245 252 258 263 266 268 270 272 274 275 277 278 279 281 283 286 289 291 293 292 289 286 285 286 287 288 288 289 290 289 289 289 291 293 296 299 303 305 305 306 306
221 217 220 227 228 225 226 232 235 234 231 230 234 241 245 245 244 243 240 235 227 223 222 220 218 218 219 219 219 221 223 223 222 223 223 222 223 224 226 228 228 230 234 242 251 258 263 266 268 270 271 272 272 274 276 278 279 281 281 283 285 289 291 291 288 286 285 286 285 285 285 287 287 287 286 287 288 290 293 296 300 303 304 304 304
231 228 230 233 232 228 231 236 238 237 241 245 247 248 250 249 243 236 230 224 221 221 221 221 221 221 219 218 218 220 221 221 221 222 222 221 220 221 224 227 231 237 243 251 258 263 265 266 267 268 270 270 271 273 274 276 278 280 282 285 289 293 294 293 290 286 284 283 283 284 287 288 288 287 286 286 286 287 289 293 297 300 302 302 303
233 234 235 235 232 230 231 235 236 238 244 248 248 246 242 237 231 228 225 222 223 224 223 222 224 226 223 220 220 219 220 223 224 223 222 220 219 222 228 233 238 243 249 254 260 263 264 265 266 267 269 271 274 276 278 281 284 286 287 289 290 289 289 288 286 285 285 286 287 289 289 289 289 288 287 285 285 285 287 291 295 298 301 303 303
244 242 238 239 245 247 243 240 242 244 243 244 246 243 233 223 221 223 220 214 217 226 230 231 232 232 227 223 221 221 222 226 226 224 223 223 225 229 234 237 241 245 248 252 256 258 259 260 262 264 267 269 273 277 280 282 284 284 283 283 283 283 283 283 284 286 288 290 291 292 290 289 289 289 287 285 285 285 286 289 292 297 301 304 304
245 243 237 237 244 247 245 243 244 244 244 243 239 230 221 216 216 217 218 220 227 235 238 237 235 233 230 226 223 222 224 227 228 228 229 229 230 232 235 238 244 248 249 250 252 251 249 249 253 260 266 271 274 277 278 279 280 279 278 278 279 280 281 281 281 284 288 291 293 293 291 289 288 287 286 286 285 284 284 287 290 295 301 305 306
235 234 230 227 230 234 237 239 239 240 242 239 228 216 212 220 225 226 228 234 237 236 235 233 231 231 230 229 226 226 228 231 233 234 232 230 230 233 238 243 247 248 245 245 244 241 238 239 247 257 267 273 276 276 275 277 279 278 277 277 280 282 285 286 285 286 288 291 293 294 293 290 288 287 285 285 284 283 283 285 288 293 299 304 305
228 227 224 224 227 233 237 237 236 236 236 230 220 210 212 226 236 238 236 234 232 232 233 232 232 233 232 230 228 229 231 233 235 236 233 230 231 236 242 245 247 246 243 241 238 235 234 235 240 249 261 269 273 274 274 276 279 282 283 286 289 291 293 295 294 292 291 291 292 293 294 293 291 288 286 284 283 282 281 282 285 289 296 301 302
231 230 228 228 232 238 242 243 240 236 229 222 218 217 223 230 235 234 229 224 226 232 236 237 237 237 235 233 232 232 232 232 234 236 235 234 235 239 243 246 248 247 242 237 235 236 236 236 239 247 256 260 263 267 270 275 280 285 289 292 294 295 297 299 300 298 295 292 291 291 291 291 291 290 288 285 284 281 280 280 282 285 290 294 297
Height
3155 3156 3158 3159 3161 3162 3164 3165 3167 3169 3171 3172 3174 3176 3178 3180 3182 3184 3185 3186 3187 3188 3189 3190 3191 3192 3193 3194 3194 3195 3195 3195 3195 3195 3196 3196 3196 3196 3196 3195 3195 3194 3193 3192 3192 3191 3190 3189 3188 3187 3187 3186 3186 3185 3184 3184 3184 3184 3184 3184 3184 3184 3184 3183 3184 3184 3183 3183 3182 3181 3181 3180 3180 3180 3179 3178 3177 3176 3176 3175 3174 3173 3173 3172 3172
3153 3154 3155 3156 3158 3160 3162 3163 3164 3166 3168 3169 3171 3173 3175 3177 3179 3181 3182 3184 3185 3186 3187 3188 3189 3190 3191 3192 3192 3193 3193 3193 3192 3193 3193 3194 3194 3194 3193 3193 3192 3191 3191 3190 3189 3188 3188 3187 3186 3185 3185 3184 3184 3183 3182 3182 3182 3182 3182 3182 3182 3182 3182 3182 3182 3182 3182 3181 3180 3179 3178 3178 3177 3177 3176 3175 3175 3174 3173 3173 3172 3171 3170 3169 3169
3151 3152 3153 3154 3156 3158 3159 3160 3162 3163 3165 3166 3168 3170 3173 3175 3176 3178 3180 3181 3182 3184 3185 3186 3187 3188 3189 3189 3190 3190 3190 3190 3190 3190 3191 3191 3191 3191 3191 3190 3190 3189 3188 3188 3187 3186 3185 3185 3184 3183 3183 3182 3182 3181 3180 3180 3180 3180 3180 3180 3180 3180 3180 3180 3180 3180 3180 3179 3178 3177 3176 3175 3174 3173 3172 3172 3171 3170 3169 3168 3168 3167 3166 3165 3164
3149 3150 3151 3152 3154 3155 3156 3158 3159 3160 3161 3163 3165 3168 3170 3172 3173 3175 3177 3179 3180 3181 3182 3183 3184 3185 3186 3187 3188 3188 3188 3188 3188 3188 3188 3189 3189 3188 3188 3187 3187 3186 3185 3185 3184 3183 3183 3183 3182 3181 3180 3180 3180 3179 3178 3178 3178 3177 3178 3178 3178 3178 3178 3178 3178 3178 3177 3177 3176 3175 3174 3173 3172 3171 3169 3168 3167 3165 3165 3164 3163 3162 3161 3161 3160
3146 3147 3149 3150 3151 3152 3153 3155 3156 3157 3159 3161 3163 3165 3167 3169 3170 3172 3174 3176 3177 3179 3180 3181 3182 3183 3184 3184 3185 3186 3186 3186 3186 3186 3186 3187 3186 3186 3185 3184 3183 3183 3182 3182 3182 3181 3181 3180 3180 3179 3178 3178 3178 3177 3176 3176 3175 3175 3175 3176 3176 3176 3175 3175 3176 3175 3175 3174 3174 3173 3172 3171 3170 3169 3167 3165 3164 3163 3161 3161 3160 3159 3158 3157 3156
3143 3145 3146 3147 3148 3149 3151 3152 3153 3155 3156 3158 3160 3162 3163 3165 3167 3169 3171 3173 3175 3176 3177 3178 3179 3180 3181 3182 3182 3183 3184 3184 3184 3184 3184 3184 3184 3183 3182 3181 3180 3180 3179 3179 3179 3179 3178 3178 3177 3176 3176 3176 3176 3175 3174 3174 3173 3173 3173 3174 3173 3173 3173 3173 3173 3173 3172 3171 3171 3170 3169 3168 3167 3166 3164 3163 3162 3161 3159 3158 3157 3156 3154 3153 3153
3140 3141 3143 3144 3145 3146 3148 3149 3151 3152 3154 3155 3157 3159 3160 3162 3164 3166 3168 3170 3171 3173 3174 3175 3177 3178 3179 3179 3180 3180 3181 3181 3182 3182 3182 3182 3181 3181 3180 3178 3178 3177 3176 3176 3176 3176 3176 3176 3175 3174 3174 3174 3173 3172 3172 3171 3171 3171 3171 3171 3171 3171 3171 3170 3170 3170 3169 3169 3168 3167 3167 3165 3164 3163 3162 3160 3159 3158 3156 3155 3155 3154 3151 3150 3150
3137 3138 3139 3141 3142 3143 3145 3146 3148 3150 3152 3153 3154 3156 3157 3159 3161 3163 3165 3166 3168 3170 3172 3173 3174 3175 3176 3176 3177 3177 3178 3178 3179 3179 3179 3179 3179 3178 3177 3176 3175 3175 3174 3173 3173 3174 3173 3173 3172 3172 3171 3171 3170 3170 3169 3169 3168 3168 3169 3169 3169 3169 3168 3168 3168 3167 3167 3166 3166 3165 3164 3163 3162 3161 3159 3157 3156 3155 3153 3151 3151 3151 3149 3147 3147
3134 3135 3136 3137 3138 3140 3142 3144 3146 3147 3149 3150 3151 3153 3154 3156 3158 3160 3161 3163 3165 3167 3169 3170 3171 3172 3172 3173 3174 3174 3175 3175 3176 3176 3176 3176 3176 3175 3174 3173 3172 3172 3171 3170 3170 3170 3170 3170 3169 3169 3168 3168 3167 3167 3167 3166 3166 3166 3166 3166 3166 3166 3166 3166 3166 3165 3164 3163 3163 3162 3161 3161 3160 3159 3157 3155 3153 3152 3151 3148 3147 3147 3146 3145 3145
3130 3131 3133 3134 3136 3137 3139 3141 3142 3144 3146 3147 3148 3150 3152 3153 3155 3156 3158 3160 3162 3164 3165 3166 3167 3169 3169 3170 3171 3171 3172 3173 3173 3173 3173 3173 3173 3171 3170 3169 3168 3168 3167 3165 3165 3166 3166 3166 3166 3165 3164 3164 3164 3164 3164 3164 3164 3164 3164 3164 3164 3164 3164 3163 3163 3162 3161 3161 3160 3159 3158 3158 3157 3155 3154 3153 3151 3149 3148 3146 3144 3143 3141 3140 3142
3127 3128 3130 3132 3133 3134 3136 3138 3139 3141 3142 3144 3146 3147 3149 3150 3152 3154 3155 3157 3159 3161 3162 3163 3164 3166 3167 3167 3168 3168 3169 3170 3170 3170 3170 3170 3169 3168 3167 3166 3164 3163 3163 3162 3162 3162 3163 3163 3162 3162 3161 3161 3162 3162 3161 3161 3161 3162 3162 3162 3161 3161 3161 3161 3160 3159 3158 3158 3157 3157 3155 3155 3154 3153 3151 3150 3148 3146 3145 3143 3141 3139 3138 3136 3137
3123 3125 3127 3128 3129 3131 3133 3135 3136 3138 3139 3141 3143 3145 3146 3147 3149 3150 3152 3154 3156 3158 3158 3160 3162 3163 3164 3164 3165 3165 3166 3166 3167 3166 3166 3166 3165 3164 3163 3162 3161 3160 3159 3159 3159 3159 3159 3160 3159 3158 3158 3158 3159 3159 3158 3158 3158 3159 3159 3159 3159 3159 3159 3158 3157 3157 3155 3155 3154 3154 3153 3152 3151 3150 3148 3146 3145 3143 3141 3139 3138 3135 3134 3132 3132
3119 3121 3123 3124 3125 3128 3130 3131 3133 3135 3136 3138 3140 3142 3143 3144 3145 3147 3149 3152 3154 3155 3156 3157 3159 3160 3160 3161 3162 3162 3163 3163 3163 3163 3163 3162 3161 3159 3159 3158 3157 3156 3156 3156 3155 3155 3156 3156 3155 3155 3155 3155 3155 3155 3155 3155 3155 3156 3156 3156 3156 3156 3156 3155 3155 3154 3153 3152 3152 3151 3150 3148 3147 3147 3145 3142 3141 3140 3138 3136 3134 3132 3130 3128 3127
3115 3116 3118 3120 3121 3124 3126 3128 3130 3131 3133 3135 3137 3139 3140 3141 3142 3144 3146 3148 3150 3151 3152 3154 3155 3156 3157 3158 3158 3159 3159 3159 3159 3159 3159 3158 3156 3155 3154 3154 3153 3153 3153 3152 3152 3152 3152 3152 3151 3152 3151 3151 3151 3152 3152 3152 3152 3152 3153 3153 3154 3154 3153 3152 3151 3150 3150 3149 3148 3148 3147 3145 3144 3143 3141 3139 3137 3136 3134 3132 3131 3128 3126 3124 3124
3111 3112 3114 3115 3117 3119 3122 3124 3126 3128 3130 3132 3133 3135 3136 3137 3139 3141 3143 3144 3146 3147 3149 3151 3152 3153 3154 3154 3155 3155 3155 3155 3155 3156 3155 3154 3153 3151 3151 3150 3150 3149 3149 3149 3148 3148 3148 3148 3148 3148 3148 3148 3147 3148 3148 3148 3148 3148 3149 3150 3150 3150 3150 3149 3148 3147 3146 3146 3145 3144 3143 3142 3140 3139 3138 3136 3134 3131 3129 3127 3126 3124 3121 3120 3120
3107 3108 3109 3111 3113 3115 3117 3119 3122 3124 3126 3128 3129 3131 3132 3134 3135 3137 3139 3141 3142 3144 3145 3147 3148 3150 3150 3151 3151 3151 3152 3152 3152 3153 3152 3151 3149 3147 3147 3146 3146 3145 3145 3145 3144 3144 3144 3144 3144 3144 3144 3144 3143 3144 3144 3144 3144 3144 3145 3146 3147 3147 3147 3146 3145 3144 3143 3142 3141 3141 3140 3138 3137 3135 3134 3132 3130 3127 3124 3122 3121 3119 3116 3116 3115
3104 3105 3105 3107 3108 3110 3112 3115 3117 3119 3122 3123 3124 3126 3128 3130 3132 3134 3136 3137 3139 3140 3142 3143 3145 3146 3147 3147 3147 3148 3149 3149 3149 3149 3149 3147 3146 3144 3143 3143 3142 3140 3140 3140 3140 3140 3140 3140 3140 3140 3140 3139 3139 3140 3140 3140 3140 3140 3142 3143 3143 3144 3144 3143 3141 3140 3140 3139 3138 3137 3136 3135 3133 3132 3130 3128 3126 3123 3120 3118 3117 3115 3113 3112 3110
3101 3102 3102 3103 3104 3106 3108 3110 3112 3114 3116 3118 3120 3122 3123 3126 3128 3130 3132 3133 3135 3137 3138 3140 3141 3142 3143 3143 3144 3144 3145 3145 3145 3145 3144 3143 3141 3140 3139 3138 3137 3136 3135 3135 3135 3135 3136 3136 3136 3135 3135 3136 3136 3136 3136 3136 3137 3137 3139 3139 3140 3141 3141 3140 3138 3137 3137 3136 3135 3134 3133 3131 3129 3128 3126 3124 3122 3119 3116 3114 3113 3111 3109 3108 3106
3097 3098 3099 3101 3101 3102 3104 3105 3107 3109 3111 3113 3116 3117 3119 3121 3124 3126 3128 3130 3131 3133 3135 3135 3136 3137 3138 3139 3140 3140 3141 3141 3141 3140 3139 3138 3136 3135 3134 3134 3133 3132 3131 3130 3130 3131 3132 3132 3131 3131 3131 3132 3132 3132 3133 3132 3133 3134 3135 3136 3136 3137 3137 3136 3135 3134 3134 3133 3132 3131 3129 3128 3126 3124 3122 3120 3117 3115 3112 3110 3109 3106 3104 3103 3101
3094 3096 3097 3098 3098 3099 3100 3101 3102 3103 3105 3108 3111 3112 3114 3117 3120 3122 3124 3125 3127 3129 3130 3131 3132 3133 3134 3135 3136 3136 3137 3137 3136 3135 3134 3133 3132 3130 3129 3129 3129 3127 3126 3125 3125 3126 3127 3127 3127 3127 3127 3128 3128 3128 3129 3129 3129 3131 3132 3132 3132 3133 3133 3132 3131 3131 3131 3130 3129 3127 3126 3124 3122 3120 3118 3115 3113 3110 3108 3106 3104 3102 3100 3099 3097
3091 3092 3093 3094 3094 3095 3096 3097 3098 3100 3101 3103 3106 3108 3110 3113 3116 3118 3119 3121 3123 3124 3126 3127 3128 3129 3130 3131 3132 3132 3132 3132 3132 3131 3130 3129 3128 3126 3125 3125 3124 3123 3121 3120 3121 3122 3123 3123 3123 3123 3123 3124 3124 3124 3125 3126 3126 3127 3127 3128 3128 3128 3128 3128 3128 3128 3127 3126 3125 3124 3123 3121 3118 3116 3113 3111 3109 3106 3104 3102 3100 3098 3097 3095 3094
3087 3088 3089 3090 3090 3091 3091 3092 3094 3095 3097 3098 3100 3103 3106 3109 3112 3114 3115 3116 3118 3120 3122 3123 3124 3125 3127 3127 3127 3127 3127 3128 3127 3127 3126 3125 3124 3123 3121 3121 3120 3118 3116 3116 3117 3118 3119 3119 3120 3120 3120 3120 3120 3121 3122 3122 3123 3124 3124 3124 3124 3124 3124 3125 3125 3124 3123 3122 3121 3120 3119 3117 3114 3111 3109 3107 3104 3102 3100 3098 3096 3095 3094 3093 3091
3082 3083 3084 3084 3085 3086 3087 3087 3088 3089 3091 3093 3095 3098 3102 3105 3107 3109 3110 3112 3114 3116 3118 3119 3120 3122 3122 3122 3123 3123 3124 3124 3124 3123 3121 3120 3120 3119 3118 3116 3115 3114 3112 3112 3113 3114 3115 3115 3116 3116 3116 3116 3117 3118 3118 3119 3120 3121 3121 3120 3121 3123 3122 3122 3121 3120 3119 3118 3117 3116 3115 3112 3109 3106 3104 3102 3099 3097 3095 3094 3093 3092 3091 3089 3088
3077 3078 3078 3079 3080 3080 3081 3081 3082 3083 3085 3088 3091 3094 3097 3100 3103 3105 3106 3108 3110 3112 3114 3115 3116 3117 3118 3118 3119 3120 3120 3120 3120 3118 3116 3116 3115 3114 3113 3112 3111 3110 3109 3109 3110 3110 3111 3112 3112 3112 3112 3113 3114 3114 3114 3116 3118 3119 3118 3118 3120 3121 3119 3118 3118 3117 3115 3114 3114 3112 3110 3107 3104 3101 3099 3097 3095 3093 3092 3091 3090 3089 3088 3086 3085
3070 3071 3072 3073 3074 3075 3075 3075 3075 3077 3079 3082 3085 3089 3092 3095 3097 3099 3101 3103 3105 3107 3109 3110 3112 3113 3114 3114 3115 3115 3116 3116 3115 3113 3112 3112 3111 3110 3109 3107 3107 3106 3106 3105 3106 3107 3108 3108 3108 3108 3108 3109 3109 3109 3110 3112 3114 3116 3116 3117 3118 3117 3116 3115 3114 3113 3111 3111 3110 3108 3105 3103 3100 3097 3095 3094 3092 3090 3089 3088 3088 3087 3085 3083 3082
3062 3063 3065 3066 3067 3067 3068 3068 3069 3071 3073 3076 3080 3084 3087 3089 3092 3095 3097 3099 3100 3102 3104 3106 3108 3109 3110 3110 3110 3111 3111 3111 3110 3109 3108 3108 3107 3106 3105 3104 3103 3102 3102 3102 3102 3103 3104 3104 3104 3104 3104 3105 3106 3106 3107 3109 3110 3111 3113 3114 3114 3113 3113 3112 3110 3109 3108 3107 3105 3103 3101 3099 3096 3094 3092 3091 3089 3088 3087 3086 3085 3084 3082 3080 3079
3053 3054 3056 3059 3061 3061 3060 3060 3061 3064 3066 3070 3074 3077 3080 3083 3087 3089 3092 3094 3096 3098 3099 3101 3103 3104 3105 3105 3105 3106 3106 3106 3105 3105 3105 3104 3103 3102 3101 3100 3099 3099 3098 3098 3099 3100 3100 3100 3100 3100 3100 3102 3104 3105 3105 3106 3107 3108 3109 3110 3110 3109 3108 3107 3106 3106 3105 3103 3101 3099 3097 3096 3094 3092 3090 3089 3087 3086 3084 3083 3081 3080 3079 3077 3075
3045 3045 3046 3048 3051 3053 3053 3053 3055 3058 3061 3064 3067 3071 3074 3078 3081 3085 3088 3091 3092 3094 3095 3097 3099 3100 3100 3100 3100 3101 3101 3101 3101 3100 3099 3099 3098 3098 3097 3097 3096 3095 3095 3095 3095 3096 3095 3096 3097 3097 3098 3100 3102 3103 3103 3103 3105 3106 3106 3106 3106 3105 3104 3104 3103 3102 3101 3099 3097 3095 3094 3093 3091 3089 3088 3086 3084 3083 3081 3079 3077 3076 3075 3073 3072
3034 3035 3035 3035 3037 3042 3046 3049 3051 3054 3057 3059 3062 3065 3068 3073 3077 3081 3085 3087 3089 3090 3092 3093 3094 3095 3094 3095 3095 3096 3096 3096 3095 3094 3094 3094 3094 3094 3094 3093 3092 3091 3091 3091 3092 3092 3092 3093 3093 3094 3095 3097 3098 3100 3100 3101 3102 3103 3103 3103 3102 3101 3101 3100 3099 3098 3097 3095 3093 3092 3090 3089 3088 3086 3084 3083 3081 3079 3077 3075 3074 3072 3070 3069 3067
3022 3022 3022 3023 3027 3034 3040 3045 3048 3050 3052 3054 3057 3060 3063 3068 3073 3078 3081 3083 3085 3087 3088 3089 3089 3089 3089 3090 3090 3091 3091 3090 3090 3089 3089 3089 3089 3089 3089 3089 3088 3088 3088 3089 3089 3089 3090 3091 3091 3092 3094 3095 3096 3096 3097 3098 3099 3100 3100 3100 3099 3098 3097 3096 3095 3094 3092 3091 3090 3088 3086 3085 3083 3082 3080 3079 3077 3075 3073 3072 3070 3068 3066 3065 3063
3000 3003 3009 3013 3019 3026 3031 3038 3044 3046 3047 3049 3053 3057 3062 3066 3070 3074 3077 3079 3081 3082 3083 3084 3084 3084 3084 3085 3085 3086 3086 3085 3085 3084 3084 3085 3085 3085 3086 3086 3086 3086 3087 3087 3087 3087 3088 3089 3090 3090 3091 3092 3093 3093 3093 3094 3096 3096 3096 3096 3095 3094 3094 3093 3091 3090 3088 3087 3086 3084 3082 3080 3079 3078 3077 3075 3073 3072 3070 3069 3067 3065 3064 3062 3061
2983 2990 3003 3010 3015 3019 3023 3030 3037 3041 3043 3046 3050 3055 3061 3064 3068 3070 3073 3074 3076 3077 3078 3078 3078 3079 3079 3080 3080 3081 3081 3080 3080 3080 3080 3081 3082 3082 3082 3083 3083 3084 3085 3085 3085 3085 3086 3086 3087 3087 3088 3089 3089 3090 3090 3091 3092 3093 3093 3092 3092 3091 3090 3089 3087 3086 3084 3083 3082 3081 3079 3078 3076 3075 3073 3072 3071 3069 3068 3067 3065 3063 3061 3060 3058
2995 2998 3006 3011 3015 3020 3023 3027 3032 3037 3040 3044 3049 3054 3059 3062 3065 3067 3069 3070 3071 3072 3072 3073 3073 3074 3075 3075 3076 3077 3077 3076 3076 3077 3077 3078 3079 3079 3080 3080 3081 3081 3082 3082 3082 3083 3083 3083 3083 3084 3085 3086 3086 3087 3087 3088 3089 3089 3089 3089 3088 3088 3087 3085 3084 3082 3081 3079 3078 3077 3076 3074 3073 3072 3070 3069 3068 3066 3065 3064 3062 3060 3059 3057 3056
3008 3008 3010 3013 3017 3022 3026 3029 3033 3036 3040 3044 3049 3053 3057 3059 3061 3063 3065 3065 3067 3067 3068 3068 3069 3069 3070 3071 3072 3073 3072 3072 3073 3073 3073 3074 3075 3076 3077 3077 3078 3078 3079 3080 3080 3080 3080 3081 3081 3082 3082 3083 3083 3084 3085 3085 3085 3086 3086 3085 3085 3084 3082 3081 3079 3078 3076 3075 3074 3073 3072 3071 3070 3069 3068 3066 3065 3064 3062 3061 3059 3058 3056 3055 3053
3013 3013 3016 3019 3023 3025 3028 3031 3034 3038 3041 3045 3049 3052 3054 3056 3058 3060 3061 3062 3062 3062 3063 3063 3065 3066 3067 3068 3068 3068 3067 3068 3068 3068 3069 3070 3071 3073 3074 3075 3076 3076 3077 3078 3078 3078 3078 3078 3078 3078 3079 3080 3080 3081 3081 3082 3082 3082 3082 3081 3081 3080 3078 3076 3075 3073 3072 3071 3071 3070 3069 3068 3067 3066 3065 3064 3063 3061 3060 3058 3057 3055 3054 3053 3051
3017 3019 3021 3023 3026 3029 3031 3033 3036 3039 3041 3044 3047 3049 3051 3053 3055 3056 3057 3058 3058 3058 3058 3059 3061 3062 3063 3063 3063 3063 3063 3063 3063 3064 3065 3066 3068 3069 3071 3072 3073 3074 3075 3075 3076 3075 3075 3075 3075 3075 3076 3077 3077 3078 3078 3079 3079 3079 3078 3078 3077 3075 3073 3072 3071 3070 3069 3069 3068 3067 3067 3066 3065 3064 3063 3061 3060 3058 3057 3056 3054 3053 3052 3050 3048
3020 3022 3023 3025 3027 3030 3032 3034 3036 3038 3040 3042 3043 3045 3048 3050 3051 3053 3054 3054 3053 3053 3054 3056 3058 3059 3059 3060 3059 3059 3059 3059 3059 3060 3062 3063 3065 3066 3067 3068 3069 3071 3072 3072 3073 3073 3073 3072 3073 3073 3074 3074 3074 3075 3076 3076 3076 3076 3075 3074 3073 3071 3070 3069 3068 3067 3067 3066 3065 3064 3064 3063 3062 3061 3060 3058 3057 3055 3054 3053 3052 3051 3049 3048 3046
3022 3023 3024 3026 3028 3029 3031 3033 3035 3037 3039 3040 3042 3043 3045 3047 3048 3049 3050 3050 3050 3051 3052 3053 3055 3055 3056 3056 3056 3056 3056 3056 3057 3058 3059 3060 3062 3063 3064 3065 3066 3068 3069 3069 3070 3070 3070 3070 3070 3071 3071 3071 3072 3072 3073 3073 3073 3072 3071 3070 3069 3068 3067 3066 3065 3065 3064 3063 3063 3062 3061 3060 3059 3058 3057 3056 3054 3053 3052 3051 3050 3049 3047 3045 3044
3021 3022 3023 3025 3026 3028 3030 3032 3033 3035 3036 3038 3039 3040 3041 3042 3043 3045 3046 3047 3048 3049 3050 3051 3051 3052 3052 3053 3053 3053 3054 3054 3054 3056 3057 3058 3059 3060 3061 3062 3063 3065 3066 3066 3066 3067 3067 3067 3068 3068 3069 3069 3069 3069 3069 3069 3069 3068 3068 3067 3066 3065 3064 3063 3063 3062 3061 3061 3060 3060 3059 3058 3057 3055 3054 3053 3052 3051 3050 3049 3048 3046 3045 3043 3042
3021 3021 3022 3023 3024 3026 3027 3029 3030 3032 3033 3034 3036 3036 3037 3038 3040 3042 3044 3045 3046 3046 3047 3048 3048 3049 3049 3050 3050 3051 3051 3052 3053 3054 3055 3056 3057 3058 3059 3059 3060 3062 3063 3063 3064 3064 3065 3065 3066 3066 3066 3066 3066 3066 3066 3065 3065 3064 3064 3063 3062 3062 3061 3061 3060 3059 3059 3059 3058 3058 3057 3055 3054 3053 3052 3051 3050 3049 3048 3047 3046 3044 3043 3041 3040
3021 3021 3022 3023 3023 3024 3025 3026 3027 3029 3030 3032 3034 3034 3036 3038 3040 3042 3042 3043 3043 3044 3044 3045 3045 3045 3046 3047 3047 3048 3049 3050 3051 3051 3052 3053 3054 3055 3056 3057 3058 3059 3060 3061 3061 3062 3062 3063 3064 3064 3064 3064 3063 3063 3062 3062 3061 3061 3060 3060 3059 3058 3058 3057 3057 3057 3056 3056 3055 3054 3054 3053 3052 3051 3050 3049 3048 3047 3046 3045 3043 3042 3041 3039 3038
3020 3020 3021 3022 3022 3022 3023 3024 3026 3027 3029 3031 3033 3035 3036 3038 3039 3040 3040 3040 3041 3041 3041 3042 3042 3042 3043 3044 3045 3046 3047 3047 3048 3049 3050 3051 3052 3053 3054 3054 3056 3057 3058 3058 3059 3059 3060 3060 3061 3061 3061 3060 3060 3059 3059 3059 3058 3058 3058 3057 3056 3056 3055 3055 3054 3053 3053 3053 3052 3052 3051 3050 3049 3048 3047 3046 3045 3044 3043 3042 3041 3040 3039 3037 3036
3019 3020 3020 3021 3021 3021 3022 3024 3026 3027 3029 3031 3033 3034 3035 3036 3037 3037 3037 3038 3038 3038 3039 3039 3040 3040 3041 3042 3043 3044 3045 3045 3046 3047 3047 3048 3049 3050 3051 3052 3053 3055 3056 3056 3056 3056 3057 3057 3057 3057 3057 3057 3056 3056 3056 3055 3055 3055 3054 3054 3053 3053 3052 3052 3051 3051 3050 3050 3050 3049 3049 3048 3047 3046 3045 3044 3043 3042 3041 3040 3039 3038 3037 3036 3034
3019 3019 3019 3020 3020 3021 3022 3024 3025 3027 3028 3030 3031 3033 3034 3034 3034 3034 3034 3035 3036 3036 3037 3037 3038 3038 3039 3040 3041 3042 3043 3043 3044 3044 3045 3046 3047 3048 3049 3050 3051 3052 3053 3053 3053 3053 3053 3053 3053 3053 3053 3053 3053 3053 3053 3052 3052 3052 3051 3051 3050 3050 3049 3049 3049 3048 3048 3048 3047 3047 3046 3045 3044 3044 3043 3042 3041 3040 3039 3038 3037 3036 3035 3034 3033
3018 3018 3018 3019 3020 3021 3022 3023 3024 3026 3027 3029 3030 3031 3032 3033 3033 3032 3032 3033 3034 3034 3035 3035 3036 3037 3038 3039 3039 3040 3040 3041 3042 3042 3043 3044 3045 3046 3047 3048 3049 3049 3050 3050 3050 3049 3049 3049 3050 3050 3050 3050 3050 3050 3050 3050 3049 3048 3047 3047 3047 3047 3046 3046 3046 3046 3045 3045 3045 3044 3044 3043 3042 3041 3040 3039 3039 3038 3037 3036 3035 3034 3033 3032 3031
3016 3017 3017 3017 3018 3020 3021 3021 3022 3023 3025 3027 3028 3029 3030 3031 3031 3030 3030 3030 3031 3032 3033 3034 3035 3036 3036 3037 3037 3038 3038 3039 3040 3041 3042 3042 3043 3044 3045 3045 3046 3046 3046 3046 3046 3046 3046 3046 3047 3047 3047 3046 3046 3047 3046 3046 3046 3045 3044 3044 3044 3044 3044 3044 3043 3043 3043 3042 3042 3042 3041 3040 3040 3039 3038 3037 3036 3036 3035 3034 3034 3033 3032 3030 3029
3014 3015 3015 3016 3017 3018 3019 3019 3020 3021 3022 3024 3025 3026 3027 3027 3027 3027 3028 3028 3029 3030 3031 3032 3033 3034 3035 3035 3035 3036 3036 3037 3038 3039 3040 3041 3041 3042 3042 3042 3043 3043 3043 3044 3043 3043 3043 3044 3044 3044 3044 3044 3044 3044 3043 3043 3043 3043 3042 3042 3042 3042 3042 3041 3041 3040 3040 3040 3039 3039 3038 3038 3037 3037 3036 3035 3034 3034 3033 3032 3032 3031 3030 3029 3027
3011 3012 3013 3013 3014 3015 3015 3017 3017 3018 3018 3020 3021 3022 3023 3024 3024 3025 3026 3027 3027 3028 3029 3030 3031 3032 3033 3033 3034 3034 3035 3035 3036 3037 3038 3039 3039 3039 3039 3040 3040 3040 3041 3041 3041 3041 3041 3041 3042 3042 3041 3041 3042 3041 3041 3041 3041 3041 3040 3040 3040 3039 3039 3039 3038 3038 3038 3037 3037 3037 3036 3035 3035 3034 3034 3033 3032 3032 3031 3031 3030 3029 3028 3027 3026
3008 3009 3010 3011 3011 3012 3013 3014 3015 3015 3015 3017 3018 3019 3020 3022 3022 3023 3024 3025 3026 3026 3027 3028 3029 3030 3031 3031 3032 3033 3033 3034 3034 3035 3036 3037 3037 3037 3037 3037 3037 3037 3038 3039 3039 3039 3039 3039 3040 3039 3039 3039 3039 3039 3039 3039 3039 3039 3038 3037 3037 3037 3036 3036 3036 3035 3035 3035 3035 3034 3034 3033 3033 3032 3031 3031 3030 3030 3029 3028 3028 3027 3026 3025 3024
3007 3007 3008 3008 3009 3010 3011 3012 3012 3013 3014 3015 3016 3017 3017 3019 3020 3021 3022 3023 3023 3024 3025 3026 3026 3027 3028 3029 3030 3031 3031 3032 3032 3033 3033 3034 3034 3034 3034 3034 3034 3035 3036 3036 3036 3037 3037 3037 3038 3038 3037 3037 3037 3037 3037 3036 3036 3036 3035 3035 3034 3034 3034 3033 3033 3033 3032 3032 3032 3032 3031 3031 3030 3030 3029 3028 3028 3027 3027 3026 3026 3025 3024 3024 3023
3005 3005 3006 3006 3007 3008 3009 3009 3010 3011 3012 3013 3014 3015 3015 3017 3018 3018 3019 3020 3021 3022 3023 3023 3024 3025 3026 3027 3027 3028 3029 3030 3030 3030 3030 3031 3032 3032 3032 3032 3032 3033 3033 3034 3034 3034 3035 3035 3035 3036 3035 3035 3035 3035 3034 3034 3034 3033 3032 3032 3031 3031 3031 3031 3031 3030 3030 3029 3029 3029 3029 3028 3028 3027 3027 3026 3025 3025 3024 3024 3023 3023 3022 3022 3021